RH
57 51 49 41 37 43 74 92 96 60 70 72 49 45 45 45 34 31 56 54 57 48 35 6 4 3 3 4 6 10 15 16 18 35 100 100 100 100 100 100 100 100 100 100
70 61 54 54 46 42 45 65 73 78 66 100 89 54 49 50 46 37 37 52 54 40 60 32 11 4 5 4 6 8 14 17 19 35 100 100 100 100 100 100 100 100 100 100
75 75 70 60 58 53 45 45 55 66 77 96 100 86 60 54 47 46 31 44 57 44 36 46 41 7 4 6 5 8 11 14 19 20 42 99 100 98 100 100 100 100 100 100
71 65 70 78 68 83 62 56 49 54 84 65 100 100 94 62 54 48 46 42 44 49 38 25 29 18 8 6 7 9 10 17 25 25 44 100 100 100 100 100 100 100 100 100
74 69 71 73 79 75 76 74 73 55 60 81 72 100 100 78 56 49 50 47 68 56 81 66 96 74 24 24 18 13 14 23 31 33 88 100 100 100 93 100 100 100 100 100
76 71 70 70 75 88 78 68 64 61 68 71 85 85 100 100 93 54 50 54 48 60 67 100 94 100 70 93 92 54 40 33 30 68 100 100 100 100 100 100 100 100 100 100
76 73 66 61 66 69 65 75 65 70 65 70 77 66 100 100 100 76 59 50 54 59 76 86 82 75 92 100 100 100 52 29 28 44 100 100 100 100 100 100 100 100 100 100
84 73 73 71 69 71 76 76 68 65 68 73 76 83 54 100 100 97 58 54 49 60 94 99 87 91 95 84 96 100 97 46 39 36 100 100 100 100 100 88 100 100 100 99
83 77 73 71 70 68 70 71 62 61 74 81 100 100 83 57 100 100 84 54 59 50 68 100 100 81 88 98 76 85 95 100 80 52 50 100 100 99 100 100 100 100 100 100
80 88 79 80 74 68 65 64 57 57 67 86 100 100 100 76 68 99 100 78 59 65 54 76 100 93 79 100 100 100 92 99 100 100 89 87 100 100 100 100 100 100 100 100
78 88 91 85 76 76 71 61 51 48 60 82 100 100 94 96 72 92 100 99 75 72 61 56 80 100 96 88 100 100 100 86 70 68 71 98 100 100 100 100 100 100 100 99
93 82 98 91 81 78 69 62 54 50 61 91 100 100 100 100 87 84 90 100 100 82 76 61 58 69 100 100 89 100 100 100 100 95 100 98 100 100 100 100 100 100 100 100
96 90 92 92 79 72 58 45 42 47 85 100 98 100 100 100 100 88 100 100 95 99 96 79 71 56 63 91 100 93 95 100 100 100 100 100 94 99 100 100 100 100 100 100
90 88 99 82 69 61 52 42 39 44 85 99 100 97 100 100 100 100 100 100 100 96 92 100 95 82 64 63 63 90 100 100 100 100 100 100 100 100 100 100 100 100 100 100
81 88 97 87 73 59 53 41 39 38 65 87 100 100 100 100 100 100 100 100 98 87 86 78 78 82 92 87 72 58 66 97 99 100 100 100 99 100 100 100 100 100 100 100
78 73 73 81 65 54 44 40 49 34 44 84 94 100 100 100 100 100 100 100 100 97 88 81 84 82 86 92 91 88 72 60 61 74 84 87 79 88 100 100 100 100 100 100
92 86 85 74 64 54 44 42 46 35 50 68 86 100 100 100 100 100 100 100 96 98 96 97 96 90 85 79 81 86 82 72 64 58 60 64 75 87 77 77 93 100 100 100
84 77 78 72 57 55 45 42 48 42 50 72 88 100 100 100 100 100 100 100 100 100 100 100 100 100 92 85 76 77 73 74 75 69 58 54 52 57 71 91 90 94 100 100
93 87 77 60 48 43 54 49 50 44 61 66 97 99 100 100 100 100 100 94 90 96 98 100 100 100 90 84 89 88 73 66 61 60 62 59 51 47 47 50 71 86 83 83
89 76 62 50 43 48 62 53 57 41 65 80 94 99 100 100 100 100 100 99 88 84 86 87 86 84 86 85 81 80 77 76 74 73 66 55 49 49 49 45 44 46 50 59
65 59 61 56 55 56 64 53 62 51 63 86 96 90 93 94 97 100 97 85 81 82 92 96 94 91 87 85 80 79 76 74 76 75 70 64 59 53 45 41 40 39 39 40
60 67 69 67 70 76 62 56 59 58 72 90 99 99 94 96 97 98 99 100 99 94 95 94 82 80 78 78 79 75 70 65 61 58 55 52 48 43 38 34 32 27 22 22
76 91 67 73 78 69 73 65 63 76 89 94 99 95 90 93 95 97 97 97 100 100 99 95 93 83 84 84 82 78 70 63 60 56 47 38 30 24 18 15 13 12 12 12
100 98 92 76 93 89 89 75 77 62 98 94 99 99 96 96 95 97 97 96 97 98 98 97 92 94 92 74 64 59 56 54 43 28 18 15 14 13 12 12 12 12 11 10
100 100 99 100 100 99 95 90 86 80 97 88 98 98 97 99 92 94 96 100 100 98 96 91 90 82 72 62 54 41 33 24 18 16 16 15 14 13 10 8 6 5 4 4
100 100 100 100 98 96 95 99 99 100 91 89 94 89 94 99 100 100 100 97 97 96 90 82 73 64 51 44 36 23 19 17 17 17 14 10 7 6 5 5 5 4 4 4
Wind_Speed
64 65 67 72 70 60 55 58 61 64 62 67 67 68 66 61 59 51 30 32 34 22 13 20 24 32 45 55 60 73 78 79 79 70 25 50 70 71 71 87 86 85 86 81
61 63 66 67 71 66 59 55 57 61 59 62 68 68 69 67 59 56 51 35 33 31 10 11 13 28 35 48 60 67 77 79 78 86 67 52 48 48 62 70 88 86 85 87
61 60 62 66 65 67 61 60 55 55 58 59 62 66 68 67 62 55 52 34 31 31 19 7 10 24 37 38 51 61 71 74 72 74 77 63 46 52 59 71 70 85 82 83
67 67 63 61 62 66 65 63 61 53 53 53 55 59 63 65 63 59 57 50 40 38 25 12 5 13 27 36 43 57 65 69 74 71 73 60 55 57 60 54 66 68 79 77
68 67 62 60 61 62 65 61 59 54 51 54 53 54 58 61 60 57 54 53 42 34 31 25 18 12 17 27 36 53 56 68 74 69 79 69 70 67 65 59 57 67 65 80
70 68 63 64 61 63 65 65 60 55 50 51 52 47 52 57 60 57 57 51 48 37 29 18 10 18 24 25 33 45 64 69 74 81 85 66 77 71 69 65 60 63 63 69
76 70 70 66 61 62 63 66 63 57 51 49 47 49 43 48 50 53 50 49 44 36 31 18 4 16 24 30 37 58 69 71 74 81 88 74 73 78 76 71 66 56 62 64
75 75 69 65 60 62 66 67 66 57 54 49 44 47 44 41 44 47 45 44 42 37 26 19 6 13 25 38 43 51 57 66 73 86 100 89 77 77 79 71 70 67 70 74
75 79 79 69 66 67 64 66 66 62 52 45 45 44 45 44 40 41 43 40 39 34 27 14 9 6 19 22 32 51 61 63 62 66 87 101 75 68 71 71 72 64 70 75
78 79 81 70 68 68 69 69 66 64 50 41 42 45 43 40 37 39 39 39 35 33 25 16 10 11 18 24 27 33 52 59 64 71 81 93 83 79 78 76 73 70 73 71
79 83 79 73 73 69 72 70 72 68 53 42 40 43 40 38 38 35 38 38 35 33 28 18 9 19 23 27 34 38 48 55 62 64 65 91 93 88 79 81 74 74 77 75
83 85 77 80 80 80 80 77 77 71 49 39 35 39 41 38 37 31 35 37 37 37 32 27 17 11 26 34 38 49 54 57 60 64 73 83 104 100 96 95 88 86 86 86
85 89 83 79 85 84 84 83 77 64 41 38 31 39 40 35 35 33 33 35 38 37 37 34 29 23 18 25 40 50 58 69 72 71 75 82 91 99 104 103 101 100 93 94
89 90 85 88 90 88 87 87 77 55 38 35 35 37 34 33 35 36 36 36 38 40 37 37 37 36 33 29 32 39 59 66 72 74 79 87 90 100 100 107 104 108 105 107
94 92 87 83 89 92 90 86 73 52 41 34 38 40 39 36 37 38 40 41 41 41 39 40 42 41 40 42 42 42 47 60 74 83 86 90 95 100 102 105 109 112 113 114
99 97 95 84 92 90 91 89 72 52 44 39 38 38 39 41 42 42 43 45 46 46 46 46 47 48 51 52 52 54 54 56 57 66 77 93 96 104 107 109 113 116 119 122
95 94 90 84 88 91 94 91 73 53 46 41 38 38 41 44 47 49 50 50 51 52 52 52 53 54 55 57 58 60 62 64 66 69 71 77 80 96 112 119 122 119 125 129
99 101 95 89 91 93 93 89 72 51 46 42 42 44 47 47 49 51 54 56 57 56 57 58 60 62 64 63 62 64 66 69 72 74 77 82 86 92 94 113 129 132 132 131
100 98 96 96 96 91 96 90 73 56 47 39 43 47 46 47 49 54 58 62 61 62 64 66 68 71 75 73 73 75 76 76 78 81 84 87 88 94 100 106 119 132 128 140
99 99 101 102 99 93 96 88 69 58 49 42 42 45 48 50 55 61 65 68 69 68 69 71 72 73 74 76 78 81 82 82 84 86 89 90 92 96 101 104 110 120 131 140
105 101 101 102 101 97 100 87 70 60 51 49 50 48 47 53 59 62 66 68 67 69 73 77 77 78 79 80 80 82 82 83 85 89 93 95 98 100 102 104 108 115 121 127
108 104 105 103 106 103 103 88 73 63 53 52 56 57 58 60 61 65 69 71 71 71 76 80 80 79 80 83 85 87 88 90 93 95 98 99 101 103 104 105 108 111 114 119
103 107 110 108 108 108 107 90 77 70 62 57 54 52 54 57 61 66 70 72 74 78 83 83 82 84 84 86 88 91 92 94 96 98 100 101 101 102 102 103 104 106 110 112
104 110 110 114 112 111 108 91 80 75 69 65 62 65 64 63 67 73 75 74 75 79 82 84 85 87 93 95 95 94 93 97 100 101 100 99 98 97 96 96 98 99 103 104
105 110 114 113 111 110 101 88 84 82 85 71 67 64 65 70 72 77 82 81 83 85 86 88 90 94 99 98 98 98 99 99 99 96 95 95 96 96 95 93 93 93 93 93
110 111 111 112 112 108 92 86 84 87 82 75 70 73 72 80 81 86 91 88 90 92 93 96 99 99 99 100 102 101 98 95 94 96 95 93 90 87 85 84 84 82 81 82
Wind_Direction
12 12 11 7 7 7 357 355 354 358 3 2 9 11 14 11 8 6 8 8 6 338 293 257 233 217 216 211 208 209 216 218 215 207 200 232 228 233 229 227 228 231 232 233
8 8 5 4 4 6 2 357 354 354 359 0 0 3 9 10 10 6 4 6 2 354 298 272 234 202 202 206 204 205 205 214 212 207 198 202 208 230 238 232 229 231 234 234
5 5 4 1 5 5 3 359 355 353 354 357 357 357 -0 5 6 7 3 3 1 12 349 280 226 208 194 198 203 202 206 208 210 210 206 204 216 225 229 235 235 231 233 236
1 0 -0 359 358 3 2 358 355 351 350 350 352 354 354 357 3 7 4 5 1 3 10 353 269 233 196 189 194 201 201 204 206 207 200 198 210 224 217 222 234 234 233 234
357 356 356 354 355 355 358 355 350 346 347 348 346 349 350 351 358 4 10 6 3 3 13 7 42 76 169 177 184 197 198 201 206 203 194 204 208 214 214 217 230 233 236 236
354 352 352 352 351 352 354 354 351 343 341 341 341 344 344 348 350 358 4 10 4 1 1 15 20 134 135 163 178 186 196 200 204 196 197 201 208 211 206 216 227 226 233 233
350 351 351 350 345 348 349 348 348 344 336 333 335 337 339 343 346 350 356 4 9 3 4 4 57 191 172 152 183 187 197 202 204 202 199 201 207 211 209 214 218 224 231 230
346 347 348 346 344 342 340 344 346 342 336 326 329 330 333 335 339 341 348 356 7 10 1 356 4 184 175 183 190 194 200 206 206 206 202 206 210 217 215 217 223 230 235 236
344 342 344 344 339 340 338 339 342 340 332 327 323 322 323 329 332 333 338 345 354 8 3 358 308 239 200 214 210 200 200 205 212 213 213 211 213 216 215 218 223 225 229 234
339 338 340 339 337 336 335 335 335 338 328 318 315 311 315 314 322 324 326 333 339 347 5 349 270 254 213 205 217 219 213 207 210 211 214 211 211 211 215 220 225 230 234 240
334 335 336 333 333 331 332 331 330 331 329 313 308 307 310 309 310 315 314 320 326 328 333 350 310 249 240 232 213 219 221 224 226 228 223 211 212 218 220 224 231 233 232 232
330 332 331 328 329 331 333 329 329 327 321 308 302 300 302 304 302 306 307 307 311 312 314 314 315 294 242 238 229 218 220 222 226 229 228 223 219 221 228 229 230 233 233 232
328 329 329 326 327 331 333 331 330 326 309 300 298 287 295 296 292 299 296 294 294 296 300 300 296 289 272 248 246 239 228 227 228 232 231 229 226 226 229 229 232 233 237 237
327 326 325 325 327 328 331 332 332 324 307 299 288 288 289 289 288 292 289 286 285 286 286 284 287 287 280 268 250 245 240 241 237 236 236 233 232 229 232 231 231 234 236 239
326 326 323 323 323 328 329 330 331 323 309 301 283 281 281 281 286 286 284 282 279 282 279 276 279 280 279 279 270 257 244 241 241 241 239 239 237 235 235 235 235 238 240 240
324 323 323 318 323 326 330 331 333 322 314 296 286 280 277 279 282 284 280 280 279 279 278 276 276 278 277 276 274 270 264 256 252 244 244 245 244 243 241 243 242 242 243 244
321 320 320 319 322 328 328 332 331 322 317 299 285 278 274 273 273 276 280 283 284 283 282 277 276 281 281 276 273 271 269 267 262 258 253 247 247 248 244 243 245 246 247 245
319 319 317 316 321 325 327 332 329 321 314 301 286 282 277 275 276 278 280 284 285 283 283 280 278 279 282 279 276 274 273 272 270 265 260 254 250 246 247 246 245 246 248 248
317 314 314 317 322 325 328 332 329 322 311 303 287 282 277 275 276 276 278 283 286 283 282 281 280 279 281 281 281 280 278 273 268 267 266 265 260 254 250 247 245 244 247 249
314 314 316 318 321 328 330 331 326 322 311 306 292 284 275 273 274 275 278 283 286 286 286 285 284 283 283 283 282 281 280 278 275 273 271 267 263 262 262 258 252 249 248 249
312 317 319 321 322 326 329 330 326 322 313 308 305 299 293 286 283 286 287 289 292 294 296 295 293 291 290 288 287 286 283 281 279 277 274 272 271 270 268 263 260 258 256 252
315 317 320 323 322 325 327 328 325 322 314 310 305 301 302 302 299 298 299 298 295 294 299 299 294 291 291 291 290 289 287 285 283 281 279 278 276 273 271 270 268 266 261 258
318 318 321 320 323 323 326 326 323 324 315 313 307 303 306 307 308 307 304 300 297 296 295 295 294 293 293 293 293 291 289 288 288 286 284 282 280 278 275 273 271 269 267 265
316 318 318 319 321 322 323 322 318 320 316 308 309 307 306 304 303 310 309 305 302 301 299 298 296 295 295 295 295 293 292 291 289 288 287 286 284 282 280 278 275 273 270 267
314 315 316 317 319 320 319 317 315 316 314 307 311 311 308 310 309 311 312 308 304 302 300 298 296 295 297 298 297 296 294 293 291 291 290 288 287 285 284 282 279 277 274 272
313 313 312 315 315 316 313 312 310 309 309 306 309 309 313 313 314 313 312 307 305 302 301 301 301 301 301 300 299 296 296 295 294 293 291 290 289 287 286 283 281 279 276 275